Tracking 28790 objects as of 18-Apr-2024
HD Live streaming from Space Station
objects crossing your sky now

STARLINK-1798

Track STARLINK-1798 now!
10-day predictions
STARLINK-1798 is classified as:


NORAD ID: 46779
Int'l Code: 2020-074AS
Perigee: 553.0 km
Apogee: 555.8 km
Inclination: 53.1 °
Period: 95.6 minutes
Semi major axis: 6925 km
RCS: Unknown
Launch date: October 24, 2020
Source: United States (US)
Launch site: AIR FORCE EASTERN TEST RANGE (AFETR)
Your satellite tracking list
Your tracking list is empty




NASA's NSSDC Master Catalog

Two Line Element Set (TLE):
1 46779U 20074AS  24109.17141975  .00008503  00000-0  58911-3 0  9990
2 46779  53.0520 171.4773 0001995  31.6222 328.4886 15.06393732192459
Source of the keplerian elements: AFSPC